This is the latest recevied weather packets stored in our database for station/object G4WLC-1. If no packets are shown the sender has not sent any weather packets the latest 10 day(s).
| Time | Temp. | Humidity | Pressure | Rain* | Wind** | Luminosity | Snow |
|---|---|---|---|---|---|---|---|
| 1787998638 | 15.56° C | 95% | 1001.7 hPa | 0 mm | - | - | - |
| 1787998338 | 15.56° C | 95% | 1001.8 hPa | 0 mm | - | - | - |
| 1787998038 | 15.56° C | 95% | 1001.8 hPa | 0 mm | - | - | - |
| 1787997738 | 15.56° C | 95% | 1001.9 hPa | 0.25 mm | - | - | - |
| 1787997438 | 15.56° C | 95% | 1001.9 hPa | 1.02 mm | - | - | - |
| 1787997138 | 15.56° C | 95% | 1002.1 hPa | 2.03 mm | - | - | - |
| 1787996838 | 15.56° C | 95% | 1002.2 hPa | 2.54 mm | - | - | - |
| 1787996542 | 15.56° C | 95% | 1002.2 hPa | 3.3 mm | - | - | - |
| 1787996239 | 15.56° C | 95% | 1002.2 hPa | 4.57 mm | - | - | - |
| 1787995938 | 15.56° C | 95% | 1002.4 hPa | 5.33 mm | - | - | - |
| 1787995639 | 15.56° C | 95% | 1002.3 hPa | 6.6 mm | - | - | - |
| 1787995338 | 15.56° C | 95% | 1002.4 hPa | 6.86 mm | - | - | - |
| 1787995038 | 15.56° C | 95% | 1002.6 hPa | 7.11 mm | - | - | - |
| 1787994738 | 15.56° C | 95% | 1002.6 hPa | 7.11 mm | - | - | - |
| 1787994438 | 15.56° C | 95% | 1002.7 hPa | 7.37 mm | - | - | - |
| 1787994138 | 15.56° C | 95% | 1003 hPa | 7.62 mm | - | - | - |
| 1787993839 | 15.56° C | 95% | 1003 hPa | 6.86 mm | - | - | - |
| 1787993539 | 15° C | 95% | 1003.1 hPa | 6.1 mm | - | - | - |
| 1787993239 | 15° C | 95% | 1003 hPa | 5.59 mm | - | - | - |
| 1787992939 | 15° C | 95% | 1003.2 hPa | 5.59 mm | - | - | - |
| 1787992639 | 15° C | 94% | 1003.3 hPa | 4.83 mm | - | - | - |
| 1787992339 | 15° C | 94% | 1003.3 hPa | 4.83 mm | - | - | - |
| 1787992039 | 15° C | 94% | 1003.3 hPa | 3.81 mm | - | - | - |
| 1787991739 | 15° C | 94% | 1003.4 hPa | 3.81 mm | - | - | - |
| 1787991439 | 15° C | 94% | 1003.4 hPa | 3.81 mm | - | - | - |
* Rain latest hour (hover to see other rain measurements)
** Current wind speed in m/s (hover to see current wind gust speed)